Language: 


Des rapports , des résumés tant et plus, au choix de chacun....


Données statistiques de la station
Quotidien Rapport Février 2, 2018 Unités:  Métrique    Anglais   les deux
« Précédent Jour
Suivant Jour »
Quotidien Hebdomadaire Mensuel Annuel Actuel
  Haut: Bas: Moyen:
Température: -17.8 °C -16.8 °C -15.6 °C
Pt de rosée: -17.8 °C -16.7 °C -15.6 °C
Humidité: Humidity % 87 % 97 %
Vitesse du vent: 0 km/h 0 km/h 10.1 km/h
Rafales: 0 km/h - -
Vent:- - West
Pression: 0 hPa 33958.2 hPa -
Précipitation: 347.98 mm    
Historical Graphs
 
 
Données statistiques pour Février 2, 2018
Heure Température Point de rosée Pression Vent Vitesse du vent Refales Humidité Pluie (taux horaire)
-17.8 °C -17.8 °C 0 hPa Calm     Humidity % 0 mm
00:00 -15.9 °C -16.1 °C 33958.2 hPa West 9.8 km/h 22.5 km/h 98 % 25.4 mm
00:05 -15.9 °C -16.1 °C 33958.2 hPa SW 24.8 km/h 24.8 km/h 98 % 33.02 mm
00:10 -15.9 °C -16.1 °C 33958.2 hPa West 10.3 km/h 24.8 km/h 98 % 25.4 mm
00:16 -15.9 °C -16.1 °C 33958.2 hPa West 17.4 km/h 22.5 km/h 98 % 33.02 mm
00:21 -15.9 °C -16.1 °C 33958.2 hPa West 16.9 km/h 26.2 km/h 98 % 38.1 mm
00:26 -15.9 °C -16.1 °C 33958.2 hPa West 14.5 km/h 26.2 km/h 98 % 38.1 mm
00:31 -15.9 °C -16.1 °C 33958.2 hPa WSW 12.2 km/h 22 km/h 98 % 38.1 mm
00:36 -15.9 °C -16.1 °C 33958.2 hPa WSW 22.5 km/h 22.5 km/h 98 % 45.72 mm
00:41 -15.9 °C -16.1 °C 33958.2 hPa West 16.9 km/h 22.5 km/h 98 % 45.72 mm
00:46 -15.9 °C -16.1 °C 33992.1 hPa WSW 16.3 km/h 22 km/h 98 % 38.1 mm
00:51 -15.8 °C -15.6 °C 33992.1 hPa West 15 km/h 20.3 km/h 98 % 38.1 mm
00:56 -15.8 °C -15.6 °C 33992.1 hPa West 6.4 km/h 20.9 km/h 98 % 33.02 mm
01:01 -15.8 °C -15.6 °C 33958.2 hPa Calm   20.9 km/h 98 % 33.02 mm
01:06 -15.8 °C -15.6 °C 33958.2 hPa Calm   16.9 km/h 98 % 20.32 mm
01:11 -15.7 °C -15.6 °C 33958.2 hPa WSW 15 km/h 16.3 km/h 98 % 12.7 mm
01:16 -15.7 °C -15.6 °C 33958.2 hPa West 11.1 km/h 15 km/h 98 % 12.7 mm
01:21 -15.7 °C -15.6 °C 33958.2 hPa West 12.7 km/h 15.6 km/h 98 % 7.62 mm
01:26 -15.7 °C -15.6 °C 33958.2 hPa West 15 km/h 16.3 km/h 98 % 7.62 mm
01:31 -15.6 °C -15.6 °C 33992.1 hPa WNW 9.3 km/h 16.3 km/h 98 % 7.62 mm
01:36 -15.6 °C -15.6 °C 33992.1 hPa WNW 6.9 km/h 12.2 km/h 98 % 0 mm
01:41 -15.6 °C -15.6 °C 33992.1 hPa NE 8.9 km/h 16.3 km/h 98 % 0 mm
01:46 -15.5 °C -15.6 °C 33958.2 hPa West 6.4 km/h 16.3 km/h 98 % 0 mm
01:51 -15.4 °C -15.6 °C 33958.2 hPa North 9.3 km/h 15 km/h 98 % 0 mm
01:56 -15.4 °C -15.6 °C 33958.2 hPa WNW 7.6 km/h 19.6 km/h 98 % 0 mm
02:01 -15.3 °C -15.6 °C 33958.2 hPa West 5.1 km/h 24.8 km/h 98 % 0 mm
02:06 -15.3 °C -15.6 °C 33958.2 hPa WNW 8 km/h 24.8 km/h 98 % 0 mm
02:12 -15.3 °C -15 °C 33958.2 hPa NNE 5.6 km/h 20.9 km/h 98 % 0 mm
02:17 -15.3 °C -15 °C 33958.2 hPa North 14.5 km/h 19.2 km/h 98 % 0 mm
02:22 -15.3 °C -15 °C 33958.2 hPa West 8.9 km/h 22.5 km/h 98 % 0 mm
02:27 -15.3 °C -15.6 °C 33958.2 hPa WSW 4.2 km/h 22.5 km/h 98 % 0 mm
02:32 -15.3 °C -15.6 °C 33992.1 hPa WNW 3.4 km/h 19.6 km/h 98 % 0 mm
02:37 -15.4 °C -15.6 °C 33992.1 hPa West 9.8 km/h 16.3 km/h 98 % 0 mm
02:42 -15.4 °C -15.6 °C 33992.1 hPa West 8.9 km/h 16.9 km/h 98 % 0 mm
02:47 -15.5 °C -15.6 °C 33992.1 hPa Calm   16.9 km/h 98 % 0 mm
02:52 -15.6 °C -15.6 °C 33992.1 hPa Calm   11.1 km/h 98 % 0 mm
02:57 -15.7 °C -15.6 °C 33992.1 hPa West 12.2 km/h 12.2 km/h 98 % 0 mm
03:02 -15.7 °C -15.6 °C 33992.1 hPa WSW 5.1 km/h 14 km/h 98 % 0 mm
03:07 -15.7 °C -15.6 °C 33992.1 hPa NW 9.8 km/h 16.3 km/h 98 % 0 mm
03:12 -15.8 °C -15.6 °C 33992.1 hPa WSW 2.3 km/h 16.3 km/h 98 % 0 mm
03:17 -15.8 °C -15.6 °C 33992.1 hPa WSW 8.9 km/h 15 km/h 98 % 0 mm
03:22 -15.9 °C -16.1 °C 33992.1 hPa West 9.8 km/h 15 km/h 98 % 0 mm
03:27 -15.9 °C -16.1 °C 33992.1 hPa WSW 8 km/h 15.6 km/h 97 % 0 mm
03:32 -16 °C -16.1 °C 33958.2 hPa Calm   15.6 km/h 97 % 0 mm
03:37 -16.1 °C -16.1 °C 33958.2 hPa West 16.3 km/h 16.3 km/h 97 % 0 mm
03:42 -16.1 °C -16.1 °C 33958.2 hPa WSW 12.7 km/h 19.2 km/h 97 % 0 mm
03:47 -16.1 °C -16.1 °C 33992.1 hPa WNW 9.3 km/h 19.2 km/h 97 % 0 mm
03:52 -16.2 °C -16.1 °C 33992.1 hPa West 15.6 km/h 16.9 km/h 98 % 0 mm
03:57 -16.1 °C -16.1 °C 33992.1 hPa West 11.1 km/h 19.6 km/h 98 % 0 mm
04:02 -16.1 °C -16.1 °C 33992.1 hPa West 8 km/h 20.3 km/h 98 % 0 mm
04:07 -15.9 °C -16.1 °C 33992.1 hPa WSW 9.3 km/h 20.3 km/h 98 % 0 mm
04:12 -15.9 °C -16.1 °C 33992.1 hPa WNW 12.7 km/h 20.3 km/h 98 % 0 mm
04:17 -15.8 °C -15.6 °C 33992.1 hPa West 12.7 km/h 22.5 km/h 98 % 0 mm
04:22 -15.7 °C -15.6 °C 33992.1 hPa WNW 16.3 km/h 24.8 km/h 98 % 0 mm
04:27 -15.7 °C -15.6 °C 33992.1 hPa West 14 km/h 24.8 km/h 98 % 0 mm
04:32 -15.6 °C -15.6 °C 33992.1 hPa WSW 22.5 km/h 22.5 km/h 98 % 0 mm
04:37 -15.6 °C -15.6 °C 33992.1 hPa WNW 14.5 km/h 22.5 km/h 98 % 0 mm
04:42 -15.6 °C -15.6 °C 33992.1 hPa West 18.7 km/h 28.5 km/h 98 % 0 mm
04:47 -15.6 °C -15.6 °C 33992.1 hPa WSW 20.9 km/h 28.5 km/h 97 % 0 mm
04:52 -15.6 °C -15.6 °C 33992.1 hPa WSW 20.3 km/h 30.7 km/h 97 % 0 mm
04:57 -15.6 °C -15.6 °C 33992.1 hPa West 26.2 km/h 30.7 km/h 96 % 0 mm
05:02 -15.7 °C -16.1 °C 33992.1 hPa West 19.6 km/h 27.2 km/h 95 % 0 mm
05:07 -15.7 °C -16.1 °C 33992.1 hPa WNW 16.3 km/h 27.2 km/h 95 % 0 mm
05:12 -15.7 °C -16.1 °C 33992.1 hPa WNW 17.9 km/h 31.4 km/h 94 % 0 mm
05:17 -15.7 °C -16.1 °C 33992.1 hPa WNW 9.8 km/h 31.4 km/h 94 % 0 mm
05:22 -15.7 °C -16.1 °C 33992.1 hPa WNW 15.6 km/h 31.4 km/h 94 % 0 mm
05:27 -15.7 °C -16.1 °C 33992.1 hPa West 22 km/h 33.2 km/h 94 % 0 mm
05:32 -15.7 °C -16.1 °C 33992.1 hPa West 20.3 km/h 33.2 km/h 94 % 0 mm
05:37 -15.7 °C -16.1 °C 33992.1 hPa West 20.9 km/h 27.2 km/h 93 % 0 mm
05:42 -15.6 °C -16.1 °C 33992.1 hPa WSW 20.9 km/h 27.2 km/h 93 % 0 mm
05:48 -15.6 °C -16.1 °C 33992.1 hPa WNW 20.3 km/h 27.7 km/h 93 % 0 mm
05:53 -15.5 °C -16.1 °C 33992.1 hPa West 20.3 km/h 28.5 km/h 92 % 0 mm
05:58 -15.5 °C -16.1 °C 33992.1 hPa WNW 16.3 km/h 28.5 km/h 92 % 0 mm
06:03 -15.5 °C -16.1 °C 33992.1 hPa WSW 28.5 km/h 33.2 km/h 91 % 0 mm
06:08 -15.4 °C -16.1 °C 33992.1 hPa South 9.8 km/h 33.2 km/h 91 % 0 mm
06:13 -15.4 °C -16.1 °C 33992.1 hPa West 7.6 km/h 32.3 km/h 91 % 0 mm
06:18 -15.4 °C -16.1 °C 33992.1 hPa West 16.3 km/h 22.5 km/h 91 % 0 mm
06:23 -15.4 °C -16.1 °C 33992.1 hPa West 10.3 km/h 20.3 km/h 92 % 7.62 mm
06:28 -15.4 °C -16.1 °C 33992.1 hPa WNW 14.5 km/h 27.7 km/h 92 % 7.62 mm
06:33 -15.4 °C -16.1 °C 33992.1 hPa WNW 19.2 km/h 27.7 km/h 93 % 7.62 mm
06:38 -15.4 °C -16.1 °C 33992.1 hPa West 2.9 km/h 27.7 km/h 93 % 12.7 mm
06:43 -15.5 °C -16.1 °C 33992.1 hPa West 14 km/h 20.9 km/h 94 % 12.7 mm
06:48 -15.5 °C -16.1 °C 33992.1 hPa NNW 19.2 km/h 19.6 km/h 94 % 12.7 mm
06:53 -15.5 °C -16.1 °C 33992.1 hPa West 8.9 km/h 34.1 km/h 95 % 12.7 mm
06:58 -15.5 °C -15.6 °C 33992.1 hPa WSW 11.1 km/h 34.1 km/h 96 % 12.7 mm
07:03 -15.5 °C -15.6 °C 33992.1 hPa West 9.3 km/h 22.5 km/h 96 % 12.7 mm
07:08 -15.6 °C -15.6 °C 33992.1 hPa ENE 15 km/h 16.9 km/h 96 % 12.7 mm
07:13 -15.6 °C -15.6 °C 34029.3 hPa South 9.3 km/h 28.5 km/h 97 % 12.7 mm
07:18 -15.5 °C -15.6 °C 34029.3 hPa NW 19.2 km/h 28.5 km/h 97 % 20.32 mm
07:24 -15.5 °C -15.6 °C 34029.3 hPa West 20.9 km/h 24.3 km/h 98 % 25.4 mm
07:29 -15.5 °C -15.6 °C 34029.3 hPa WNW 17.9 km/h 24.3 km/h 98 % 33.02 mm
07:34 -15.6 °C -15.6 °C 34029.3 hPa NW 14 km/h 20.9 km/h 98 % 33.02 mm
07:39 -15.6 °C -15.6 °C 34029.3 hPa WSW 8 km/h 17.9 km/h 98 % 25.4 mm
07:44 -15.6 °C -15.6 °C 34029.3 hPa West 3.4 km/h 22.5 km/h 98 % 25.4 mm
07:49 -15.6 °C -15.6 °C 34029.3 hPa West 14.5 km/h 22.5 km/h 98 % 25.4 mm
07:54 -15.6 °C -15.6 °C 34029.3 hPa West 14.5 km/h 23 km/h 98 % 25.4 mm
07:59 -15.6 °C -15.6 °C 34029.3 hPa WSW 14 km/h 27.7 km/h 98 % 25.4 mm
08:04 -15.5 °C -15.6 °C 34029.3 hPa SSW 17.9 km/h 27.7 km/h 98 % 25.4 mm
08:09 -15.5 °C -15.6 °C 34029.3 hPa WNW 18.7 km/h 27.7 km/h 98 % 25.4 mm
08:14 -15.5 °C -15.6 °C 34029.3 hPa SSW 16.3 km/h 27.7 km/h 98 % 20.32 mm
08:19 -15.5 °C -15.6 °C 34029.3 hPa West 8.9 km/h 26.2 km/h 98 % 20.32 mm
08:24 -15.5 °C -15.6 °C 34029.3 hPa WSW 24.8 km/h 26.2 km/h 98 % 7.62 mm
08:29 -15.5 °C -15.6 °C 34029.3 hPa West 6.4 km/h 27.7 km/h 98 % 7.62 mm
08:34 -15.5 °C -15.6 °C 34029.3 hPa WSW 31.4 km/h 31.4 km/h 98 % 7.62 mm
08:39 -15.4 °C -15.6 °C 34029.3 hPa West 14.5 km/h 31.4 km/h 98 % 7.62 mm
08:44 -15.4 °C -15.6 °C 34029.3 hPa WSW 15 km/h 31.4 km/h 98 % 7.62 mm
08:49 -15.4 °C -15.6 °C 34029.3 hPa WSW 16.3 km/h 27.2 km/h 98 % 7.62 mm
08:54 -15.4 °C -15.6 °C 34029.3 hPa WSW 16.3 km/h 28.5 km/h 98 % 7.62 mm
08:59 -15.4 °C -15.6 °C 34029.3 hPa West 19.6 km/h 29.5 km/h 98 % 7.62 mm
09:04 -15.4 °C -15.6 °C 34029.3 hPa WSW 20.9 km/h 29.5 km/h 98 % 7.62 mm
09:09 -15.4 °C -15.6 °C 34029.3 hPa West 19.2 km/h 27.7 km/h 98 % 7.62 mm
09:14 -15.4 °C -15.6 °C 34029.3 hPa West 15.6 km/h 27.7 km/h 98 % 7.62 mm
09:19 -15.4 °C -15.6 °C 34029.3 hPa WSW 14.5 km/h 24.3 km/h 98 % 7.62 mm
09:24 -15.4 °C -15.6 °C 34029.3 hPa WSW 9.8 km/h 20.9 km/h 98 % 7.62 mm
09:29 -15.3 °C -15.6 °C 34029.3 hPa West 6.4 km/h 20.9 km/h 98 % 0 mm
09:34 -15.3 °C -15.6 °C 34029.3 hPa WSW 12.2 km/h 20.3 km/h 98 % 0 mm
09:39 -15.3 °C -15 °C 34029.3 hPa West 14 km/h 20.3 km/h 98 % 0 mm
09:45 -15.2 °C -15 °C 34029.3 hPa WSW 2.9 km/h 22 km/h 98 % 0 mm
09:50 -15.2 °C -15 °C 34029.3 hPa West 15 km/h 22 km/h 98 % 0 mm
09:55 -15.2 °C -15 °C 34029.3 hPa WSW 20.3 km/h 22 km/h 98 % 0 mm
10:00 -15.2 °C -15 °C 34029.3 hPa WSW 16.3 km/h 22 km/h 98 % 0 mm
10:05 -15.1 °C -15 °C 34029.3 hPa West 38.3 km/h 38.3 km/h 98 % 0 mm
10:10 -15 °C -15 °C 34029.3 hPa WSW 11.1 km/h 38.3 km/h 98 % 0 mm
10:15 -14.9 °C -15 °C 34029.3 hPa West 16.3 km/h 26.2 km/h 98 % 0 mm
10:20 -14.9 °C -15 °C 34029.3 hPa WSW 19.6 km/h 27.2 km/h 98 % 0 mm
10:25 -14.8 °C -14.4 °C 34029.3 hPa NNW 19.6 km/h 27.2 km/h 98 % 0 mm
10:30 -14.8 °C -14.4 °C 34029.3 hPa WNW 14.5 km/h 26.7 km/h 98 % 0 mm
10:36 -14.8 °C -14.4 °C 34029.3 hPa West 17.9 km/h 27.2 km/h 98 % 0 mm
10:41 -14.8 °C -14.4 °C 34029.3 hPa West 16.3 km/h 27.2 km/h 98 % 0 mm
10:46 -14.8 °C -14.4 °C 34029.3 hPa WSW 9.8 km/h 27.2 km/h 98 % 0 mm
10:51 -14.8 °C -14.4 °C 34029.3 hPa WSW 31.4 km/h 31.4 km/h 98 % 0 mm
10:56 -14.9 °C -15 °C 34029.3 hPa West 15.6 km/h 31.4 km/h 98 % 0 mm
11:01 -14.9 °C -15 °C 34029.3 hPa West 27.7 km/h 28.5 km/h 98 % 0 mm
11:06 -15 °C -15 °C 34029.3 hPa SW 7.6 km/h 29.5 km/h 98 % 7.62 mm
11:11 -15 °C -15 °C 34029.3 hPa WSW 9.3 km/h 33.6 km/h 98 % 12.7 mm
11:16 -15 °C -15 °C 34063.2 hPa SSW 14 km/h 33.6 km/h 98 % 12.7 mm
11:21 -15 °C -15 °C 34063.2 hPa West 18.7 km/h 24.8 km/h 98 % 12.7 mm
11:26 -15 °C -15 °C 34063.2 hPa West 25.4 km/h 27.2 km/h 98 % 12.7 mm
11:31 -15 °C -15 °C 34063.2 hPa WSW 24.8 km/h 27.2 km/h 98 % 12.7 mm
11:36 -15 °C -15 °C 34063.2 hPa West 26.7 km/h 30.7 km/h 98 % 12.7 mm
11:41 -15.1 °C -15 °C 34063.2 hPa WSW 27.2 km/h 34.1 km/h 98 % 20.32 mm
11:46 -15.1 °C -15 °C 34029.3 hPa WSW 12.7 km/h 34.1 km/h 98 % 20.32 mm
11:51 -15.1 °C -15 °C 34029.3 hPa Calm   29 km/h 98 % 33.02 mm
11:56 -15.1 °C -15 °C 34029.3 hPa NNW 14 km/h 27.7 km/h 98 % 33.02 mm
12:01 -15 °C -15 °C 34063.2 hPa NNW 10.3 km/h 27.7 km/h 98 % 38.1 mm
12:06 -14.9 °C -15 °C 34063.2 hPa NNW 22 km/h 26.2 km/h 98 % 33.02 mm
12:11 -14.9 °C -15 °C 34063.2 hPa NW 19.2 km/h 26.7 km/h 98 % 20.32 mm
12:16 -14.9 °C -15 °C 34063.2 hPa WNW 9.3 km/h 26.7 km/h 98 % 33.02 mm
12:22 -14.9 °C -15 °C 34063.2 hPa NNW 16.9 km/h 37.5 km/h 98 % 33.02 mm
12:27 -14.9 °C -15 °C 34063.2 hPa West 22 km/h 37.5 km/h 98 % 38.1 mm
12:32 -15 °C -15 °C 34063.2 hPa WNW 17.4 km/h 22.5 km/h 98 % 45.72 mm
12:37 -15 °C -15 °C 34063.2 hPa WSW 12.7 km/h 30.7 km/h 98 % 45.72 mm
12:42 -15 °C -15 °C 34063.2 hPa North 20.3 km/h 30.7 km/h 98 % 45.72 mm
12:47 -14.9 °C -15 °C 34063.2 hPa NNW 7.6 km/h 24.3 km/h 98 % 45.72 mm
12:52 -14.9 °C -15 °C 34063.2 hPa NNE 19.2 km/h 24.8 km/h 98 % 38.1 mm
12:57 -14.8 °C -14.4 °C 34063.2 hPa West 6.9 km/h 24.8 km/h 98 % 33.02 mm
13:02 -14.6 °C -14.4 °C 34029.3 hPa WSW 9.3 km/h 22 km/h 98 % 33.02 mm
13:07 -14.6 °C -14.4 °C 34029.3 hPa WNW 9.8 km/h 26.7 km/h 98 % 33.02 mm
13:12 -14.7 °C -14.4 °C 34029.3 hPa West 6.9 km/h 26.7 km/h 98 % 33.02 mm
13:17 -14.7 °C -14.4 °C 34029.3 hPa NW 14.5 km/h 22 km/h 98 % 20.32 mm
13:22 -14.4 °C -14.4 °C 34029.3 hPa WNW 8.9 km/h 20.9 km/h 98 % 20.32 mm
13:27 -14.4 °C -14.4 °C 34029.3 hPa WNW 14.5 km/h 20.9 km/h 98 % 12.7 mm
13:32 -14.4 °C -14.4 °C 34063.2 hPa NNW 19.2 km/h 20.3 km/h 98 % 7.62 mm
13:37 -14.4 °C -14.4 °C 34063.2 hPa NNW 12.7 km/h 20.3 km/h 98 % 7.62 mm
13:42 -14.4 °C -14.4 °C 34063.2 hPa WNW 15 km/h 20.3 km/h 98 % 0 mm
13:47 -14.3 °C -14.4 °C 34029.3 hPa WSW 25.4 km/h 25.4 km/h 98 % 0 mm
13:52 -14.1 °C -13.9 °C 34029.3 hPa West 16.3 km/h 26.2 km/h 98 % 0 mm
13:57 -14.1 °C -14.4 °C 34029.3 hPa NNW 28.5 km/h 28.5 km/h 97 % 0 mm
14:02 -13.9 °C -14.4 °C 34029.3 hPa NNW 20.3 km/h 40.7 km/h 95 % 0 mm
14:07 -13.8 °C -14.4 °C 34029.3 hPa North 9.3 km/h 40.7 km/h 93 % 0 mm
14:12 -14.1 °C -14.4 °C 34029.3 hPa North 22.5 km/h 34.1 km/h 93 % 0 mm
14:17 -14.6 °C -15.6 °C 34029.3 hPa North 24.8 km/h 34.1 km/h 87 % 7.62 mm
14:22 -14.7 °C -15.6 °C 34029.3 hPa NNW 14 km/h 33.2 km/h 89 % 12.7 mm
14:27 -14.8 °C -15.6 °C 34029.3 hPa North 10.3 km/h 26.7 km/h 91 % 12.7 mm
14:32 -14.9 °C -15.6 °C 34063.2 hPa NNW 12.7 km/h 26.7 km/h 91 % 20.32 mm
14:37 -15 °C -15.6 °C 34063.2 hPa NNW 16.3 km/h 26.7 km/h 91 % 33.02 mm
14:42 -15.6 °C -16.1 °C 34063.2 hPa NNE 20.3 km/h 36 km/h 89 % 76.2 mm
14:48 -15.7 °C -16.1 °C 34063.2 hPa WNW 12.7 km/h 36 km/h 93 % 104.14 mm
14:53 -15.7 °C -16.1 °C 34063.2 hPa NW 15.6 km/h 31.4 km/h 95 % 116.84 mm
14:58 -15.7 °C -16.1 °C 34063.2 hPa NNW 17.9 km/h 25.4 km/h 96 % 134.62 mm
15:03 -15.7 °C -16.1 °C 34063.2 hPa NNW 6.4 km/h 25.4 km/h 97 % 134.62 mm
15:09 -15.7 °C -15.6 °C 34063.2 hPa NNW 9.3 km/h 18.7 km/h 98 % 134.62 mm
15:14 -15.7 °C -15.6 °C 34097 hPa NNW 9.8 km/h 26.7 km/h 98 % 134.62 mm
15:19 -15.6 °C -15.6 °C 34097 hPa WNW 8.9 km/h 26.7 km/h 98 % 134.62 mm
15:24 -15.6 °C -15.6 °C 34097 hPa Calm   19.6 km/h 98 % 134.62 mm
15:29 -15.6 °C -15.6 °C 34097 hPa Calm   18.7 km/h 98 % 134.62 mm
15:34 -15.4 °C -15.6 °C 34097 hPa West 10.3 km/h 11.6 km/h 98 % 129.54 mm
15:39 -15.3 °C -15.6 °C 34097 hPa NNW 5.6 km/h 11.6 km/h 98 % 96.52 mm
15:44 -15.3 °C -15.6 °C 34097 hPa NNW 12.7 km/h 14.5 km/h 98 % 71.12 mm
15:49 -15.4 °C -15.6 °C 34097 hPa North 7.6 km/h 14.5 km/h 98 % 63.5 mm
15:54 -15.3 °C -15.6 °C 34097 hPa WNW 14 km/h 16.3 km/h 98 % 45.72 mm
15:59 -15.3 °C -15.6 °C 34097 hPa NNW 9.3 km/h 16.3 km/h 98 % 33.02 mm
16:04 -15.3 °C -15 °C 34097 hPa NNW 6.4 km/h 16.9 km/h 98 % 38.1 mm
16:09 -15.2 °C -15 °C 34097 hPa North 3.4 km/h 16.9 km/h 98 % 38.1 mm
16:14 -15 °C -15 °C 34097 hPa Calm   11.1 km/h 98 % 33.02 mm
16:19 -14.8 °C -14.4 °C 34097 hPa NW 10.3 km/h 11.1 km/h 98 % 20.32 mm
16:24 -14.9 °C -15 °C 34097 hPa NNE 4.2 km/h 20.3 km/h 98 % 20.32 mm
16:29 -14.9 °C -15 °C 34063.2 hPa ESE 5.6 km/h 22 km/h 98 % 20.32 mm
16:34 -15 °C -15 °C 34063.2 hPa NE 20.9 km/h 22.5 km/h 98 % 33.02 mm
16:39 -14.9 °C -15 °C 34063.2 hPa North 6.9 km/h 22.5 km/h 98 % 33.02 mm
16:44 -15 °C -15 °C 34097 hPa North 15 km/h 22.5 km/h 98 % 25.4 mm
16:49 -15.1 °C -15 °C 34097 hPa North 19.2 km/h 20.3 km/h 98 % 20.32 mm
16:54 -15.1 °C -15 °C 34097 hPa NNE 5.6 km/h 20.3 km/h 98 % 20.32 mm
16:59 -15.1 °C -15 °C 34063.2 hPa NNW 3.4 km/h 19.2 km/h 98 % 20.32 mm
17:04 -15 °C -15 °C 34063.2 hPa NE 14.5 km/h 15 km/h 98 % 7.62 mm
17:09 -14.9 °C -15 °C 34063.2 hPa Calm   14.5 km/h 98 % 7.62 mm
17:14 -14.9 °C -15 °C 34097 hPa NNE 9.3 km/h 17.4 km/h 98 % 7.62 mm
17:19 -15 °C -15 °C 34097 hPa North 15.6 km/h 19.6 km/h 98 % 7.62 mm
17:24 -15.2 °C -15 °C 34097 hPa NNE 15.6 km/h 33.2 km/h 98 % 7.62 mm
17:29 -15.3 °C -15 °C 34097 hPa North 20.9 km/h 33.2 km/h 98 % 20.32 mm
17:34 -15.3 °C -15.6 °C 34097 hPa WNW 8 km/h 20.9 km/h 98 % 7.62 mm
17:39 -15.4 °C -15.6 °C 34097 hPa Calm   19.6 km/h 98 % 7.62 mm
17:44 -15.4 °C -15.6 °C 34097 hPa Calm   11.1 km/h 98 % 7.62 mm
17:49 -15.4 °C -15.6 °C 34097 hPa Calm   6.9 km/h 98 % 7.62 mm
17:54 -15.5 °C -15.6 °C 34097 hPa Calm   8 km/h 98 % 7.62 mm
18:00 -15.6 °C -15.6 °C 34097 hPa Calm   9.8 km/h 98 % 7.62 mm
18:05 -15.7 °C -15.6 °C 34097 hPa Calm   9.8 km/h 98 % 7.62 mm
18:10 -15.7 °C -15.6 °C 34097 hPa Calm   5.6 km/h 98 % 7.62 mm
18:15 -15.7 °C -15.6 °C 34130.9 hPa Calm   2.9 km/h 98 % 7.62 mm
18:20 -15.7 °C -15.6 °C 34130.9 hPa Calm     98 % 7.62 mm
18:25 -15.6 °C -15.6 °C 34130.9 hPa Calm   2.9 km/h 98 % 7.62 mm
18:30 -15.6 °C -15.6 °C 34130.9 hPa Calm   7.6 km/h 98 % 0 mm
18:35 -15.6 °C -15.6 °C 34130.9 hPa North 12.7 km/h 19.6 km/h 98 % 7.62 mm
18:40 -15.5 °C -15.6 °C 34130.9 hPa NNW 9.8 km/h 19.6 km/h 98 % 7.62 mm
18:45 -15.5 °C -15.6 °C 34164.7 hPa Calm   14.5 km/h 98 % 7.62 mm
18:50 -15.5 °C -15.6 °C 34164.7 hPa Calm   7.6 km/h 98 % 12.7 mm
18:55 -15.6 °C -15.6 °C 34164.7 hPa Calm   5.1 km/h 98 % 12.7 mm
19:00 -15.6 °C -15.6 °C 34164.7 hPa Calm   5.1 km/h 98 % 12.7 mm
19:05 -15.6 °C -15.6 °C 34164.7 hPa Calm   3.4 km/h 98 % 12.7 mm
19:10 -15.6 °C -15.6 °C 34164.7 hPa Calm   3.4 km/h 98 % 12.7 mm
19:16 -15.5 °C -15.6 °C 34164.7 hPa Calm   16.9 km/h 98 % 12.7 mm
19:21 -15.5 °C -15.6 °C 34164.7 hPa North 6.4 km/h 16.9 km/h 98 % 12.7 mm
19:26 -15.5 °C -15.6 °C 34164.7 hPa Calm   10.3 km/h 98 % 12.7 mm
19:31 -15.5 °C -15.6 °C 34164.7 hPa NNW 9.8 km/h 9.8 km/h 98 % 12.7 mm
19:36 -15.6 °C -15.6 °C 34164.7 hPa Calm   9.8 km/h 98 % 7.62 mm
19:41 -15.6 °C -15.6 °C 34164.7 hPa Calm   9.8 km/h 98 % 7.62 mm
19:46 -15.7 °C -15.6 °C 34164.7 hPa Calm     98 % 7.62 mm
19:51 -15.7 °C -15.6 °C 34164.7 hPa Calm     98 % 0 mm
19:56 -15.8 °C -15.6 °C 34164.7 hPa Calm     98 % 0 mm
20:01 -15.9 °C -16.1 °C 34164.7 hPa WNW 2.9 km/h 2.9 km/h 98 % 0 mm
20:06 -15.9 °C -16.1 °C 34164.7 hPa Calm   8.9 km/h 98 % 0 mm
20:11 -15.9 °C -16.1 °C 34164.7 hPa Calm   8.9 km/h 98 % 0 mm
20:16 -16 °C -16.1 °C 34130.9 hPa Calm   8.9 km/h 98 % 0 mm
20:21 -16.1 °C -16.1 °C 34130.9 hPa Calm   8.9 km/h 98 % 0 mm
20:26 -16.1 °C -16.1 °C 34130.9 hPa Calm   6.4 km/h 98 % 0 mm
20:31 -16.2 °C -16.1 °C 34164.7 hPa Calm   6.4 km/h 98 % 0 mm
20:36 -16.2 °C -16.1 °C 34164.7 hPa Calm   6.9 km/h 98 % 0 mm
20:41 -16.3 °C -16.1 °C 34164.7 hPa Calm   6.9 km/h 98 % 0 mm
20:46 -16.3 °C -16.1 °C 34164.7 hPa Calm   7.6 km/h 98 % 0 mm
20:51 -16.2 °C -16.1 °C 34164.7 hPa Calm   12.2 km/h 98 % 0 mm
20:56 -16.2 °C -16.1 °C 34164.7 hPa Calm   12.2 km/h 98 % 0 mm
21:01 -16.2 °C -16.1 °C 34164.7 hPa Calm   8.9 km/h 98 % 0 mm
21:06 -16.2 °C -16.1 °C 34164.7 hPa Calm   8.9 km/h 98 % 0 mm
21:11 -16.2 °C -16.1 °C 34164.7 hPa NNE 2.3 km/h 7.6 km/h 98 % 0 mm
21:16 -16.2 °C -16.1 °C 34198.6 hPa Calm   8 km/h 98 % 0 mm
21:21 -16.2 °C -16.1 °C 34198.6 hPa Calm   8 km/h 98 % 0 mm
21:26 -16.1 °C -16.1 °C 34198.6 hPa NNW 5.1 km/h 12.2 km/h 98 % 0 mm
21:31 -16.1 °C -16.1 °C 34198.6 hPa Calm   12.2 km/h 98 % 0 mm
21:36 -16.1 °C -16.1 °C 34198.6 hPa Calm   10.3 km/h 98 % 0 mm
21:41 -16.2 °C -16.1 °C 34198.6 hPa Calm   8.9 km/h 98 % 0 mm
21:46 -16.3 °C -16.1 °C 34198.6 hPa Calm     98 % 0 mm
21:52 -16.4 °C -16.1 °C 34198.6 hPa Calm     98 % 0 mm
21:57 -16.5 °C -16.1 °C 34198.6 hPa Calm     98 % 0 mm
22:02 -16.5 °C -16.1 °C 34198.6 hPa Calm   5.1 km/h 98 % 0 mm
22:07 -16.4 °C -16.1 °C 34198.6 hPa Calm   5.1 km/h 98 % 0 mm
22:12 -16.3 °C -16.1 °C 34198.6 hPa Calm     98 % 0 mm
22:17 -16.4 °C -16.1 °C 34164.7 hPa Calm     98 % 0 mm
22:22 -16.4 °C -16.1 °C 34164.7 hPa Calm     98 % 0 mm
22:27 -16.4 °C -16.1 °C 34164.7 hPa Calm   6.4 km/h 98 % 0 mm
22:32 -16.4 °C -16.1 °C 34164.7 hPa Calm   6.4 km/h 98 % 0 mm
22:37 -16.4 °C -16.1 °C 34164.7 hPa Calm     98 % 0 mm
22:42 -16.5 °C -16.1 °C 34164.7 hPa Calm     98 % 0 mm
22:47 -16.6 °C -16.7 °C 34164.7 hPa Calm     98 % 0 mm
22:52 -16.6 °C -16.7 °C 34164.7 hPa Calm     98 % 0 mm
22:57 -16.7 °C -16.7 °C 34164.7 hPa Calm     98 % 0 mm
23:02 -16.7 °C -16.7 °C 34164.7 hPa Calm     98 % 0 mm
23:07 -16.7 °C -16.7 °C 34164.7 hPa Calm     98 % 0 mm
23:12 -16.7 °C -16.7 °C 34164.7 hPa Calm     98 % 0 mm
23:17 -16.7 °C -16.7 °C 34164.7 hPa Calm     98 % 0 mm
23:22 -16.7 °C -16.7 °C 34164.7 hPa Calm     98 % 0 mm
23:27 -16.6 °C -16.7 °C 34164.7 hPa Calm   6.4 km/h 98 % 0 mm
23:32 -16.6 °C -16.7 °C 34164.7 hPa Calm   6.4 km/h 98 % 0 mm
23:37 -16.6 °C -16.7 °C 34164.7 hPa Calm     98 % 0 mm
23:42 -16.7 °C -16.7 °C 34164.7 hPa Calm     98 % 0 mm
23:48 -16.7 °C -16.7 °C 34164.7 hPa Calm     98 % 0 mm
23:53 -16.8 °C -16.7 °C 34164.7 hPa Calm     98 % 0 mm
23:58 -16.8 °C -16.7 °C 34164.7 hPa Calm     98 % 0 mm
Le Gheer Warneton
Courtoisie de Weather Underground - 2.5 mb

Mise a jour : 21/02/2018 02:19:11
Généré par Cumulus 1.9.4 (1099)